Regional Weather Roundup
Issued by NWS Newport/Morehead, NC

Current Version | Previous Version | Text Only | Print | Product List | Glossary On
Versions: 1 2 3 4 5 6 7 8 9 10 11 12 13 14 15 16 17 18 19 20 21 22 23 24 25 26 27 28 29 30 31 32 33 34 35 36 37 38 39 40 41 42 43 44 45 46 47 48 49 50
000
ASUS42 KMHX 190214
RWRMHX
WEATHER ROUNDUP FOR EASTERN NORTH CAROLINA
NATIONAL WEATHER SERVICE NEWPORT/MOREHEAD CITY NC
1000 PM EDT FRI AUG 18 2017

NOTE: "FAIR" INDICATES FEW OR NO CLOUDS BELOW 12,000 FEET
WITH NO SIGNIFICANT WEATHER AND/OR OBSTRUCTIONS TO VISIBILITY

NCZ015>017-031-032-045>047-102-103-190300-
NORTH COAST

CITY           SKY/WX    TMP DP  RH WIND       PRES   REMARKS
EDENTON        CLEAR     85  79  83 CALM      29.89R
ELIZABETH CITY CLEAR     82  81  96 S8        29.89R
KITTY HAWK     CLEAR     82  79  89 CALM      29.90R
MANTEO         CLEAR     83  80  91 SW16      29.91R

$$

NCZ045>047-081-094-103-104-190300-
CENTRAL COAST

CITY           SKY/WX    TMP DP  RH WIND       PRES   REMARKS
FRISCO         PTCLDY    84  81  90 SW13G23   29.93R

$$

NCZ095-097-098-100-101-190300-
SOUTHERN COAST

CITY           SKY/WX    TMP DP  RH WIND       PRES   REMARKS
BEAUFORT       CLEAR     83  82  97 SW17G26   29.92R
CEDAR ISLAND   NOT AVBL
JACKSONVILLE   CLEAR     83  80  91 SW8       29.90R
PINEY ISLAND   CLEAR    N/A N/A N/A S10G18    29.91R
WILMINGTON     CLEAR     84  79  85 S12       29.91R


$$

NCZ011>013-027>030-043-044-078>080-089-090>093-098-190300-
COASTAL PLAIN

CITY           SKY/WX    TMP DP  RH WIND       PRES   REMARKS
AHOSKIE          N/A     79  78  96 S3        29.88R
CLINTON        CLEAR     84  80  86 S5        29.90R
ELIZABETHTOWN  NOT AVBL
GOLDSBORO      CLEAR     86  80  81 S9        29.88R HX 102
GREENVILLE     CLEAR     86  79  79 SW9       29.90R
HAVELOCK       CLEAR     83  79  88 S12       29.92R
KENANSVILLE    CLEAR     82  77  83 SW3       29.90R
KINSTON        NOT AVBL
NEW BERN       CLEAR     82  79  90 S7        29.92R
RICHLANDS      CLEAR     82  77  84 S8        29.91R
ROCKY MOUNT    CLEAR     84  75  74 S9        29.87R
WASHINGTON     CLEAR     83  78  85 S5        29.90R
WHITEVILLE     CLEAR     83  78  87 S6        29.91R

$$

AMZ130-135-150-152-154-156-158-170-250-252-270-ANZ085-086-088-633-658-670-190300-
MARINE OBSERVATIONS

STATION/POSITION TIME  TEMP    WIND        PRES    WAVE   SWELL
                       AIR SEA DIR/SP/G            HT/PER HT/PER
                 (UTC) (F)     (DEG/KT/KT) (MB)    (FT/S) (FT/S)
CHESAPEAKE LIGHT NOT AVBL
64 E VA BEACH    0150   80 78  210/ 14/ 17 1013.5    4/ 5   2/ 9
DUCK             0136   83 73  190/ 15/ 18 1011.8
2 E DUCK         0200      78                N/A     2/ 8
OREGON INLET     0136   83 80  190/ 19/ 21 1012.7
13E OREGON INLT  0148      81                N/A     3/ 4   2/10
HATTERAS CG      0136   83 84  210/ 12/ 16 1013.2
DIAMOND BUOY     0150   85 85  210/ 19/ 25 1013.2    5/ 5
CAPE LOOKOUT     0200   84     210/ 13/ 17 1013.2
BEAUFORT LAB     0136   84 82  210/ 12/ 17 1012.6
30 SE NEW RVR IN 0108   82 84  220/ 17/ 23 1012.9
30 SE NEW RVR IN 0113      84                N/A     4/ 5
27 SE WRIGHTSVLE 0108   84 84  200/ 17/ 25 1012.9
5 SE WRIGHTSVLE  0108   84 85  210/ 12/ 21 1012.8
225 S CAPE HAT   0150   84 85  220/ 12/ 14 1016.5    3/ 8   2/ 8
41 SE CHARLESTON 0200   84 85  210/ 16/ 19 1013.9

$$



USA.gov is the U.S. government's official web portal to all federal, state and local government web resources and services.